Regional Weather Roundup
Issued by NWS

Home | Current Version | Previous Version | Graphics & Text | Print | Product List | Glossary Off
Versions: 1 2 3 4 5 6 7 8 9 10 11 12 13 14 15 16 17 18 19 20 21 22 23 24 25 26 27 28 29 30 31 32 33 34 35 36 37 38 39 40 41 42 43 44 45 46 47 48 49 50

000
ASUS43 KTOP 291308
RWRKS

WEATHER ROUNDUP FOR KANSAS
NATIONAL WEATHER SERVICE GOODLAND KS
700 AM CST THU JAN 29 2015

NOTE:  "FAIR" INDICATES FEW OR NO CLOUDS BELOW 12,000 FEET WITH NO
SIGNIFICANT WEATHER AND/OR OBSTRUCTIONS TO VISIBILITY.

KSZ001>006-013>018-027>032-041>047-291400-
NORTHWEST KANSAS

CITY           SKY/WX    TMP DP  RH WIND       PRES   REMARKS
GOODLAND       PTCLDY    30  25  81 N15       30.41R WCI  19
HAYS           PTCLDY    34  21  60 NW15      30.37R WCI  24
HILL CITY      CLEAR     31  24  75 NW10      30.41R WCI  22
RUSSELL        PTCLDY    34  28  79 NW16      30.34R WCI  24
$$

KSZ061>065-074>080-084>089-291400-
SOUTHWEST KANSAS

CITY           SKY/WX    TMP DP  RH WIND       PRES   REMARKS
DODGE CITY     MOCLDY    35  28  75 N16G23    30.38R WCI  25
ELKHART          N/A     41  25  53 NW10        N/A
GARDEN CITY    MOCLDY    33  29  85 N18       30.41R WCI  22
LIBERAL        CLOUDY    39  28  65 NW12      30.42R WCI  32
PRATT          MOCLDY    36  30  80 N20       30.34R WCI  25
$$

KSZ066>073-081>083-090>101-291400-
SOUTHEAST KANSAS

CITY           SKY/WX    TMP DP  RH WIND       PRES   REMARKS
CHANUTE        CLOUDY    41  32  70 NW20G30   30.21R
COFFEYVILLE    MOCLDY    46  35  65 N21G30    30.19R
HUTCHINSON     MOCLDY    41  29  62 N22G29    30.30R
MEDICINE LODGE   N/A     40  31  70 N17G24    30.33R WCI  31
NEWTON         MOCLDY    39  27  60 N25G35    30.26R WCI  28
PARSONS        CLOUDY    43  33  68 N25G36    30.21R
WICHITA INTL   MOCLDY    42  30  62 N22G32    30.27R
WICHITA JABRA  CLOUDY    40  30  67 N26G36    30.26R WCI  29
WICHITA MCCONL MOCLDY    41  31  67 N28G33    30.26R
WINFIELD       MOCLDY    41  31  67 N21G32    30.27R
$$

KSZ007>012-019>026-033>040-048>060-102>105-291400-
NORTHEAST KANSAS

CITY           SKY/WX    TMP DP  RH WIND       PRES   REMARKS
CONCORDIA      CLOUDY    39  29  67 N21G33    30.30R WCI  29
EMPORIA        CLOUDY    39  29  67 N18G32    30.23R WCI  30
LAWRENCE       CLOUDY    38  28  67 N23G36    30.23R WCI  27
MANHATTAN      CLOUDY    40  29  64 N10G21    30.28R WCI  33
MARYSVILLE     CLOUDY    37  30  75 N23G31    30.26R WCI  26
OLATHE IND     CLOUDY    37  29  72 N23G33    30.21R WCI  26
OLATHE EXE     CLOUDY    38  30  73 N17G31    30.19R WCI  28
SALINA         MOCLDY    40  29  64 N20       30.31R WCI  30
TOPEKA BILLARD CLOUDY    39  28  64 N18G26    30.26R WCI  30
TOPEKA FORBES  CLOUDY    40  28  62 N29G36    30.23R WCI  29
$$



USA.gov is the U.S. government's official web portal to all federal, state and local government web resources and services.